Location: Kermapucano
(48.0667°N, 3.3000°W)
Time: 19:41:54
(UTC+00:00)

EP 3 - Pass Details

Date: 29 November 2020
Orbit: 199 x 704 km, 63.2° (Epoch: 27 January)

Event Time Altitude Azimuth Distance (km) Brightness Sun altitude
Exits shadow 06:10:54 20° 19° (NNE) 550 5.4 -14.4°
Drops below altitude 10° 06:11:41 10° 30° (NNE) 873 6.5 -14.2°
Sets 06:13:26 0° 37° (NE) 1,653 8.1 -14.0°
